Flag for Canada Weather past 2 weeks in Pond Inlet, Nunavut Territory, Canada

Now
-24 °F

Mostly cloudy.


Feels Like: -35 °F
Forecast: -29 / -27 °F
Wind: 3 mph from South

Location: Pond Inlet

Current Time: Jan 30, 2015 at 11:28:02 PM

Latest Report: Jan 30, 2015 at 11:00 PM


Visibility: 9 mi

Pressure: 30.08 "Hg

Humidity: 75%

Dew point: -29 °F

Location of Pond InletLocation

Historic Weather in Pond Inlet — Graph

°F

Pond Inlet temperature yesterday

Maximum temperature yesterday: -31 °F (at 8:00 PM)
Minimum temperature yesterday: -38 °F (at 1:00 AM)
Average temperature yesterday: -35 °F

Past Weeks' High & Low Weather Summary

 TemperatureHumidityPressure
High-20 °F (Jan 19, 7:56 AM)75% (Jan 18, 11:00 PM)30.11 "Hg (Jan 18, 11:00 PM)
Low-45 °F (Jan 26, 5:00 PM)57% (Jan 24, 8:02 AM)29.15 "Hg (Jan 19, 12:57 AM)
Average-34 °F65%29.79 "Hg
* Reported Jan 15 9:00 PM — Jan 30 9:00 PM, Pond Inlet, Weather by CustomWeather, © 2014

Note: Actual official high and low records may vary slightly from our data, if they occured in-between our weather recording intervals... More about our weather records

Advertising

Pond Inlet weather history for previous 24 hours

 ConditionsComfort  
Time TempWeatherWind HumidityBarometerVisibility
9:00 PM
Jan 30
-29 °FPassing clouds.5 mph74%30.09 "Hg9 mi
8:00 PM-29 °FClear.5 mph67%30.08 "Hg9 mi
7:00 PM-29 °FPassing clouds.6 mph67%30.08 "Hg15 mi
6:00 PM-29 °FPassing clouds.6 mph67%30.08 "Hg15 mi
5:00 PM-27 °FPassing clouds.6 mph67%30.07 "Hg15 mi
4:00 PM-27 °FPassing clouds.5 mph67%30.06 "Hg15 mi
3:00 PM-29 °FPassing clouds.6 mph74%30.05 "Hg15 mi
2:00 PM-29 °FPassing clouds.7 mph67%30.03 "Hg15 mi
1:00 PM-29 °FPassing clouds.7 mph67%30.03 "Hg15 mi
12:00 PM-29 °FPassing clouds.7 mph67%30.02 "Hg15 mi
11:00 AM-29 °FScattered clouds.7 mph67%30.02 "Hg15 mi
10:00 AM-29 °FSunny.8 mph74%30.01 "Hg9 mi
9:00 AM-29 °FClear.9 mph67%30.00 "Hg9 mi
8:00 AM-29 °FPassing clouds.8 mph74%29.99 "Hg9 mi
7:00 AM-29 °FClear.7 mph67%29.98 "Hg9 mi
6:00 AM-29 °FClear.8 mph67%29.98 "Hg9 mi
5:00 AM-29 °FPassing clouds.7 mph67%29.98 "Hg9 mi
4:00 AM-31 °FClear.8 mph67%29.96 "Hg9 mi
3:00 AM-31 °FClear.8 mph67%29.96 "Hg9 mi
2:00 AM-33 °FClear.8 mph66%29.96 "Hg9 mi
1:00 AM-33 °FClear.7 mph66%29.97 "Hg9 mi
12:00 AM-31 °FPassing clouds.6 mph67%29.97 "Hg9 mi
11:00 PM
Jan 29
-33 °FMostly cloudy.8 mph66%29.96 "Hg9 mi
Weather by CustomWeather, © 2014

See weather overviewHow to use our weather pages